Lexington Weather

Lexington, Massachusetts, USA

25°F
1/21/2021 10:09am 
  • Lexington Conditions: Clear
  • Temperature: 25.0°F / -3.9°CWarmer 2.4°F than last hour.
  • Dew Point: 13.8°FIncreased 1.8°Fsince last hour.
  • Relative Humidity: 62%Decreased 1.0% since last hour.
  • Wind: Wind from WSW WSW Calm, 10-min avg: 1 mph, gust: 4 mph
  • Barometer: 29.78 in Steady
  • Visibility: 10 miles
  • Snow Today: Trace
  •   

Regional Weather Roundup
for Boston / Norton, MA

        
000
ASUS41 KBOX 151504
RWRBOX

REGIONAL WEATHER ROUNDUP
NATIONAL WEATHER SERVICE BOSTON/NORTON MA
1000 AM EST FRI JAN 15 2021

NOTE:  "FAIR" INDICATES FEW OR NO CLOUDS BELOW 12,000 FEET WITH NO 
SIGNIFICANT WEATHER AND/OR OBSTRUCTIONS TO VISIBILITY.

MAZALL-151600-
EASTERN MASSACHUSETTS
  
CITY           SKY/WX    TMP DP  RH WIND       PRES   REMARKS
BOSTON         MOSUNNY   38  32  79 NE9       30.10R WCI  31          
BEVERLY        SUNNY     39  32  76 NE7       30.08R                  
LAWRENCE       SUNNY     38  29  70 NE8       30.10R                  
BEDFORD        SUNNY     38  30  73 NE5       30.08R                  
BLUE HILL        N/A     37  32  82 NE6       30.05R                  
NORWOOD        SUNNY     41  32  70 NE6       30.09R                  
MARSHFIELD     CLOUDY    43  36  75 CALM      30.08R                  
PLYMOUTH       CLOUDY    41  35  79 N6        30.07R                  
TAUNTON        PTSUNNY   42  33  70 VRB3      30.07R                  
NEW BEDFORD    MOSUNNY   42  34  73 N7        30.07R                  
$$

MAZALL-151600-
CAPE COD AND THE ISLANDS
  
CITY           SKY/WX    TMP DP  RH WIND       PRES   REMARKS
FALMOUTH       MOSUNNY   43  34  70 NE13      30.07R                  
HYANNIS        MOSUNNY   45  34  65 NE7       30.05R                  
CHATHAM        SUNNY     44  32  62 NE10      30.08R                  
PROVINCETOWN   SUNNY     43  35  73 NE9       30.08R                  
NANTUCKET      CLOUDY    44  34  67 NE12      30.06R                  
MARTHAS VNYRD  MOSUNNY   44  33  65 NE10      30.07R                  
$$
 
MAZALL-151600-
CENTRAL AND WESTERN MASSACHUSETTS
  
CITY           SKY/WX    TMP DP  RH WIND       PRES   REMARKS
WORCESTER      CLOUDY    34  29  82 E6        30.04R WCI  29          
FITCHBURG      CLOUDY    36  31  82 NE6       30.08R WCI  31          
ORANGE         CLOUDY    32  31  96 CALM      30.07R FOG              
SPRINGFIELD    NOT AVBL                                               
WESTFIELD      CLOUDY    32  32 100 N3        30.08R FOG              
NORTH ADAMS    SUNNY     33  28  81 E14       30.02R WCI  23          
PITTSFIELD     CLOUDY    31  29  92 E7        30.01R FOG     WCI  24  
$$
 
RIZALL-151600-
RHODE ISLAND
  
CITY           SKY/WX    TMP DP  RH WIND       PRES   REMARKS
PROVIDENCE     PTSUNNY   41  34  76 NE10      30.07S                  
NEWPORT        MOSUNNY   41  36  82 NE8       30.06R HAZE             
BLOCK ISLAND   CLOUDY    40  35  83 E12       30.06R                  
SMITHFIELD     PTSUNNY   38  35  89 NE7       30.07R                  
WESTERLY       CLOUDY    39  34  82 NE9       30.05R                  
$$
 
CTZALL-151600-
CONNECTICUT
  
CITY           SKY/WX    TMP DP  RH WIND       PRES   REMARKS
BRADLEY INTL   CLOUDY    35  32  88 N3        30.08R FOG              
HARTFORD       CLOUDY    38  32  79 N8        30.07R HAZE             
BRIDGEPORT     CLOUDY    37  34  89 NE10      30.06R WCI  30          
DANBURY        CLOUDY    33  31  92 E9        30.05R FOG     WCI  25  
GROTON         CLOUDY    41  35  79 NE7       30.05R                  
NEW HAVEN      CLOUDY    39  35  86 N5        30.06R FOG              
CHESTER        CLOUDY    39  34  81 NE5       30.05R                  
MERIDEN        CLOUDY    36  32  85 W3        30.08R                  
WILLIMANTIC    CLOUDY    39  32  76 E5        30.07R                  
OXFORD         FOG       32  32 100 E5        30.05R VSB 1/4 WCI  27  
$$

MEZ002-015-021-024-NHZ003-005-008-011-012-014-VTZ005-008-151600-
NORTHERN NEW ENGLAND
  
CITY           SKY/WX    TMP DP  RH WIND       PRES   REMARKS
PORTLAND ME    MOSUNNY   37  27  67 NE8       30.11R WCI  31          
BANGOR ME      MOSUNNY   34  27  75 N6        30.10R WCI  29          
CONCORD NH     CLOUDY    33  26  75 CALM      30.09R                  
MANCHESTER NH  MOSUNNY   36  30  79 CALM      30.08R                  
NASHUA NH      MOSUNNY   39  38  96 CALM      30.09S                  
PORTSMOUTH NH  MOSUNNY   38  26  60 CALM      30.08R                  
JAFFREY NH     CLOUDY    32  28  85 CALM      30.05R FOG              
KEENE NH       CLOUDY    29  28  96 N3        30.08R FOG              
BURLINGTON VT  MOSUNNY   27  25  92 CALM      30.04F FOG              
MT. WASHINGTON NOT AVBL                                               
$$

NYZ052-076-151600-
EASTERN NEW YORK
  
CITY           SKY/WX    TMP DP  RH WIND       PRES   REMARKS
ALBANY         PTSUNNY   29  29 100 CALM      30.04R FOG              
NEW YORK CITY  CLOUDY    41  36  82 NE14      30.02R FOG              
$$
 
ANZALL-151600-
MARINE OBSERVATIONS
  
STATION/POSITION TIME  TEMP    WIND        PRES    VSBY  WAVE
                       AIR SEA DIR/SP/G                  HT/PER
                 (UTC) (F)     (DEG/KT/KT) (MB)    (MI)  (FT/S)
BOSTON BUOY      1440   40 43   20/ 12/ 14 1019.0R
BUZZARDS BAY     1400           20/ 11/ 12 1018.6R
NANTUCKET SOUND  1440      41   10/  6/  6   N/A
MASS BAY-STELLWA 1404   41      20/ 12/ 14 1017.2R  1 7/8  2/ 3
ISLE OF SHOALS   1400   36      10/  8/  9 1018.3R
S OF BLOCK IS    1426      47                N/A           3/ 4
$$

......................KEY.........................
  SKY/WX - SKY CONDITION/PRESENT WEATHER
  TMP    - TEMPERATURE IN FAHRENHEIT
  DWPT   - DEWPOINT IN FAHRENHEIT
  RH     - RELATIVE HUMIDITY IN PERCENT
  WIND   - DIRECTION AND SPEED IN MPH
  PRES   - MEAN SEA LEVEL PRESSURE IN INCHES OF HG
  WCI    - WIND CHILL INDEX
  VSB    - VISIBILITY IN MILES
  HX     - HEAT INDEX
  TC     - TEMPERATURE IN CELSIUS
  VRB    - VARIABLE WIND DIRECTION
  N/A    - NOT AVAILABLE
  
      

Other recent Regional Weather Roundups

Thu Jan 21, 9:04am

Thu Jan 21, 7:04am

Thu Jan 21, 6:04am

Thu Jan 21, 5:04am

Thu Jan 21, 4:04am

Thu Jan 21, 3:04am

Thu Jan 21, 2:04am

Thu Jan 21, 1:04am

Thu Jan 21, 12:04am

Wed Jan 20, 11:04pm

Wed Jan 20, 10:05pm

Wed Jan 20, 9:04pm

Wed Jan 20, 8:04pm

Wed Jan 20, 7:04pm

Wed Jan 20, 6:05pm

Wed Jan 20, 5:05pm

Wed Jan 20, 1:04pm

Wed Jan 20, 12:04pm

Wed Jan 20, 11:04am

Wed Jan 20, 10:04am

Wed Jan 20, 9:05am

Wed Jan 20, 8:04am

Wed Jan 20, 7:04am

Wed Jan 20, 6:04am

Wed Jan 20, 5:04am

Wed Jan 20, 4:04am

Wed Jan 20, 3:05am

Wed Jan 20, 2:04am

Wed Jan 20, 1:04am

Wed Jan 20, 12:04am

Tue Jan 19, 11:04pm

Tue Jan 19, 10:04pm

Tue Jan 19, 9:04pm

Tue Jan 19, 8:04pm

Tue Jan 19, 7:04pm

Tue Jan 19, 6:05pm

Tue Jan 19, 5:04pm

Tue Jan 19, 4:05pm

Tue Jan 19, 3:04pm

Tue Jan 19, 2:04pm

Tue Jan 19, 1:04pm

Tue Jan 19, 12:05pm

Tue Jan 19, 11:04am

Tue Jan 19, 10:05am

Tue Jan 19, 9:04am

Tue Jan 19, 8:04am

Tue Jan 19, 7:04am

Tue Jan 19, 6:04am

Tue Jan 19, 5:04am

Tue Jan 19, 4:04am

Tue Jan 19, 3:04am

Tue Jan 19, 2:04am

Tue Jan 19, 1:04am

Tue Jan 19, 12:04am

Mon Jan 18, 11:04pm

Mon Jan 18, 10:04pm

Mon Jan 18, 9:04pm

Mon Jan 18, 8:05pm

Mon Jan 18, 7:04pm

Mon Jan 18, 6:05pm

Mon Jan 18, 5:04pm

Mon Jan 18, 4:04pm

Mon Jan 18, 3:04pm

Mon Jan 18, 2:04pm

Mon Jan 18, 1:04pm

Mon Jan 18, 12:04pm

Mon Jan 18, 11:04am

Mon Jan 18, 10:04am

Mon Jan 18, 9:04am

Mon Jan 18, 8:04am

Mon Jan 18, 7:04am

Mon Jan 18, 6:04am

Mon Jan 18, 5:04am

Mon Jan 18, 4:04am

Mon Jan 18, 3:04am

Mon Jan 18, 2:04am

Mon Jan 18, 1:04am

Mon Jan 18, 12:04am

Sun Jan 17, 11:04pm

Sun Jan 17, 10:04pm

Sun Jan 17, 9:04pm

Sun Jan 17, 8:04pm

Sun Jan 17, 7:04pm

Sun Jan 17, 6:04pm

Sun Jan 17, 5:04pm

Sun Jan 17, 4:05pm

Sun Jan 17, 3:04pm

Sun Jan 17, 2:04pm

Sun Jan 17, 1:04pm

Sun Jan 17, 12:04pm

Sun Jan 17, 11:04am

Sun Jan 17, 10:04am

Sun Jan 17, 9:04am

Sun Jan 17, 8:04am

Sun Jan 17, 7:04am

Sun Jan 17, 6:04am

Sun Jan 17, 5:04am

Sun Jan 17, 4:04am

Sun Jan 17, 3:04am

Sun Jan 17, 2:04am

Sun Jan 17, 1:04am

Sun Jan 17, 12:04am

Sat Jan 16, 11:05pm

Sat Jan 16, 10:04pm

Sat Jan 16, 9:04pm

Sat Jan 16, 8:05pm

Sat Jan 16, 7:04pm

Sat Jan 16, 6:04pm

Sat Jan 16, 5:05pm

Sat Jan 16, 4:05pm

Sat Jan 16, 3:05pm

Sat Jan 16, 2:04pm

Sat Jan 16, 1:04pm

Sat Jan 16, 12:04pm

Sat Jan 16, 11:04am

Sat Jan 16, 10:05am

Sat Jan 16, 9:04am

Sat Jan 16, 8:04am

Sat Jan 16, 7:04am

Sat Jan 16, 6:04am

Sat Jan 16, 5:04am

Sat Jan 16, 4:04am

Sat Jan 16, 3:05am

Sat Jan 16, 2:04am

Sat Jan 16, 1:04am

Sat Jan 16, 12:05am

Fri Jan 15, 11:05pm

Fri Jan 15, 10:04pm

Fri Jan 15, 9:04pm

Fri Jan 15, 8:04pm

Fri Jan 15, 7:05pm

Fri Jan 15, 6:05pm

Fri Jan 15, 5:05pm

Fri Jan 15, 4:05pm

Fri Jan 15, 3:04pm

Fri Jan 15, 2:05pm

Fri Jan 15, 1:04pm

Fri Jan 15, 12:05pm

Fri Jan 15, 11:04am

Fri Jan 15, 9:05am

Fri Jan 15, 8:04am

Fri Jan 15, 7:04am

Fri Jan 15, 6:04am

Fri Jan 15, 5:05am

Fri Jan 15, 4:04am

Fri Jan 15, 3:04am

Fri Jan 15, 2:04am

Fri Jan 15, 1:04am

Fri Jan 15, 12:05am

Thu Jan 14, 11:04pm

Thu Jan 14, 10:04pm

Thu Jan 14, 9:04pm

Thu Jan 14, 8:05pm

Thu Jan 14, 7:04pm

Thu Jan 14, 6:04pm

Thu Jan 14, 5:04pm

Thu Jan 14, 4:05pm

Thu Jan 14, 3:04pm

Thu Jan 14, 2:04pm

Thu Jan 14, 1:04pm

Thu Jan 14, 12:05pm

Thu Jan 14, 11:05am

Thu Jan 14, 10:04am

Thu Jan 14, 9:04am

Thu Jan 14, 8:04am

Thu Jan 14, 7:04am

Thu Jan 14, 6:04am

Thu Jan 14, 5:04am

Thu Jan 14, 4:04am

Thu Jan 14, 3:04am

Thu Jan 14, 2:04am

Thu Jan 14, 1:04am

Thu Jan 14, 12:04am

Wed Jan 13, 11:04pm

Wed Jan 13, 10:04pm

Wed Jan 13, 9:04pm

Wed Jan 13, 8:05pm

Wed Jan 13, 7:04pm

Wed Jan 13, 6:04pm

Wed Jan 13, 5:04pm

Wed Jan 13, 4:04pm

Wed Jan 13, 3:05pm

Wed Jan 13, 2:04pm

Wed Jan 13, 1:04pm

Wed Jan 13, 12:04pm

Wed Jan 13, 11:04am

Wed Jan 13, 10:04am

Wed Jan 13, 9:05am

Wed Jan 13, 8:04am

Wed Jan 13, 7:04am

Wed Jan 13, 6:04am

Wed Jan 13, 5:04am

Wed Jan 13, 4:04am

Wed Jan 13, 3:04am

Wed Jan 13, 2:04am

Wed Jan 13, 1:04am

Wed Jan 13, 12:05am

Tue Jan 12, 11:04pm

Tue Jan 12, 10:04pm

Tue Jan 12, 9:04pm

Tue Jan 12, 8:05pm

Tue Jan 12, 7:04pm

Meta data:

ID: b1084a5b-9cc4-40f1-af5e-1762b9f9872e
Link: https://api.weather.gov/products/b1084a5b-9cc4-40f1-af5e-1762b9f9872e